This is the latest recevied weather packets stored in our database for station/object CE3TDM-12. If no packets are shown the sender has not sent any weather packets the latest 10 day(s).
| Time | Temp. | Humidity | Pressure | Rain* | Wind** | Luminosity | Snow |
|---|---|---|---|---|---|---|---|
| 1777830133 | 20° C | 33% | 779 hPa | - | - | - | - |
| 1777829833 | 20° C | 33% | 779 hPa | - | - | - | - |
| 1777829529 | 20.56° C | 33% | 779 hPa | - | - | - | - |
| 1777829229 | 20.56° C | 33% | 779 hPa | - | - | - | - |
| 1777828928 | 20.56° C | 33% | 779.1 hPa | - | - | - | - |
| 1777828621 | 20.56° C | 33% | 779.3 hPa | - | - | - | - |
| 1777828316 | 21.11° C | 33% | 779.1 hPa | - | - | - | - |
| 1777828016 | 21.67° C | 33% | 779.2 hPa | - | - | - | - |
| 1777827715 | 21.11° C | 33% | 779.4 hPa | - | - | - | - |
| 1777827413 | 21.67° C | 33% | 779.5 hPa | - | - | - | - |
| 1777827113 | 21.11° C | 33% | 779.6 hPa | - | - | - | - |
| 1777826812 | 21.11° C | 34% | 779.7 hPa | - | - | - | - |
| 1777826512 | 21.11° C | 34% | 779.7 hPa | - | - | - | - |
| 1777826211 | 21.11° C | 34% | 779.6 hPa | - | - | - | - |
| 1777825911 | 21.11° C | 34% | 779.7 hPa | - | - | - | - |
| 1777825610 | 21.67° C | 34% | 779.6 hPa | - | - | - | - |
| 1777825307 | 21.67° C | 34% | 779.7 hPa | - | - | - | - |
| 1777825006 | 22.78° C | 33% | 779.5 hPa | - | - | - | - |
| 1777824706 | 23.33° C | 33% | 779.3 hPa | - | - | - | - |
| 1777824401 | 23.89° C | 33% | 779.5 hPa | - | - | - | - |
| 1777821298 | 25° C | 31% | 780.2 hPa | - | - | - | - |
| 1777820997 | 25.56° C | 31% | 780.1 hPa | - | - | - | - |
| 1777820697 | 25° C | 32% | 780.1 hPa | - | - | - | - |
| 1777820396 | 25° C | 32% | 780.1 hPa | - | - | - | - |
| 1777820095 | 25° C | 32% | 780.1 hPa | - | - | - | - |
* Rain since midnight (hover to see other rain measurements)
** Current wind speed in m/s (hover to see current wind gust speed)